Weather History for New River MCAS, NC

Change the Weather History Date:

Thursday, April 4, 2013

  Actual Average Record
Temperature  
Mean Temperature 50 °F -  
Max Temperature 55 °F 69 °F 87 °F (2014)
Min Temperature 45 °F 47 °F 45 °F (2005)
Degree Days  
Heating Degree Days 15    
Moisture  
Dew Point 43 °F    
Average Humidity 79    
Maximum Humidity 94    
Minimum Humidity 57    
Precipitation  
Precipitation 0.86 in - - ()
Sea Level Pressure  
Sea Level Pressure 30.08 in    
Wind  
Wind Speed 10 mph (NE)    
Max Wind Speed 18 mph    
Max Gust Speed 24 mph    
Visibility 6 miles    
Events Rain    
Averages and records for this station are not official NWS values.
T = Trace of Precipitation, MM = Missing Value Source: NWS Daily Summary

Daily Weather History Graph

Daily Weather History Graph

Search for Another Location

Airport:

Trip Planner

Search our weather history database for the weather conditions in past years. The results will help you decide how hot, cold, wet, or windy it might be!

Date:

Astronomy

Apr. 04, 2013 Rise Set
Actual Time 6:52 AM EDT 7:33 PM EDT
Civil Twilight 6:26 AM EDT 7:58 PM EDT
Nautical Twilight 5:56 AM EDT 8:29 PM EDT
Astronomical Twilight 5:26 AM EDT 8:59 PM EDT
Moon 3:03 AM EDT (4/4) 2:02 PM EDT (4/4)
Length of Visible Light 13h 32m
Length of Day
12h 41m
Waning Crescent, 34% of the Moon is Illuminated
Apr 4
Waning Crescent
Apr 10
New
Apr 18
First Quarter
Apr 25
Full
May 2
Last Quarter

Hourly Weather History & Observations

Time (EDT) Temp. Windchill Dew Point Humidity Pressure Visibility Wind Dir Wind Speed Gust Speed Precip Events Conditions
12:56 AM 46.9 °F - 34.0 °F 61% 30.31 in 10.0 mi ENE 5.8 mph - N/A   Clear
1:56 AM 46.9 °F - 35.1 °F 63% 30.30 in 10.0 mi East 6.9 mph - N/A   Clear
2:56 AM 46.0 °F 43.9 °F 35.1 °F 66% 30.28 in 10.0 mi East 4.6 mph - N/A   Clear
3:56 AM 46.9 °F - 36.0 °F 66% 30.27 in 10.0 mi ENE 8.1 mph - N/A   Mostly Cloudy
4:56 AM 46.0 °F 41.4 °F 36.0 °F 68% 30.30 in 10.0 mi NE 9.2 mph - N/A   Clear
5:56 AM 45.0 °F 39.7 °F 35.1 °F 68% 30.32 in 10.0 mi NE 10.4 mph - N/A   Scattered Clouds
6:56 AM 45.0 °F 38.9 °F 30.9 °F 58% 30.32 in 10.0 mi NE 12.7 mph - N/A   Clear
7:56 AM 46.0 °F 40.2 °F 32.0 °F 58% 30.33 in 10.0 mi NE 12.7 mph - N/A   Mostly Cloudy
8:56 AM 46.9 °F - 33.1 °F 59% 30.33 in 10.0 mi NE 12.7 mph - N/A   Overcast
9:56 AM 50.0 °F - 35.1 °F 57% 30.31 in 10.0 mi ENE 11.5 mph - N/A   Overcast
10:56 AM 51.1 °F - 37.0 °F 59% 30.31 in 10.0 mi ENE 12.7 mph 20.7 mph 0.00 in Rain Light Rain
11:56 AM 50.0 °F - 39.0 °F 66% 30.28 in 8.0 mi ENE 17.3 mph 21.9 mph 0.00 in Rain Light Rain
12:56 PM 48.9 °F - 39.9 °F 71% 30.25 in 10.0 mi NE 11.5 mph - 0.03 in Rain Light Rain
1:56 PM 48.9 °F - 42.1 °F 77% 30.22 in 10.0 mi ENE 10.4 mph - 0.01 in Rain Light Rain
2:54 PM 48.2 °F - 42.8 °F 82% 30.16 in 5.0 mi ENE 11.5 mph - 0.03 in Rain Light Rain
2:56 PM 48.9 °F - 43.0 °F 80% 30.17 in 5.0 mi ENE 12.7 mph 20.7 mph 0.04 in Rain Light Rain
4:45 PM 48.2 °F - 42.8 °F 82% 30.10 in 9.0 mi ENE 16.1 mph - 0.01 in Rain Light Rain
4:56 PM 48.9 °F - 43.0 °F 80% 30.08 in 4.0 mi ENE 18.4 mph 24.2 mph 0.02 in Rain Light Rain
5:56 PM 48.0 °F - 43.0 °F 83% 30.06 in 4.0 mi NE 13.8 mph 21.9 mph 0.01 in Rain Light Rain
6:29 PM 48.2 °F - 42.8 °F 82% 30.04 in 2.5 mi NE 9.2 mph - 0.00 in Rain Light Rain
6:40 PM 48.2 °F - 44.6 °F 87% 30.04 in 1.5 mi NE 9.2 mph - 0.03 in Rain Rain
6:56 PM 46.9 °F - 44.1 °F 90% 30.02 in 2.0 mi ENE 11.5 mph - 0.07 in Rain Rain
7:03 PM 46.4 °F 40.7 °F 44.6 °F 93% 30.02 in 2.5 mi NE 12.7 mph - 0.01 in Rain Light Rain
7:10 PM 48.2 °F - 44.6 °F 87% 30.02 in 4.0 mi ENE 9.2 mph - 0.01 in Rain Light Rain
7:41 PM 48.2 °F - 44.6 °F 87% 29.98 in 1.0 mi ENE 12.7 mph - 0.10 in Rain Heavy Rain
8:03 PM 50.0 °F - 46.4 °F 87% 29.95 in 3.0 mi ENE 10.4 mph 19.6 mph 0.03 in Rain Rain
8:11 PM 50.0 °F - 46.4 °F 87% 29.95 in 2.0 mi NE 10.4 mph - 0.09 in Rain Heavy Rain
8:22 PM 50.0 °F - 46.4 °F 87% 29.93 in 4.0 mi NE 13.8 mph - 0.11 in Rain Light Rain
8:56 PM 51.1 °F - 48.0 °F 89% 29.91 in 3.0 mi NE 10.4 mph 18.4 mph 0.21 in Rain Light Rain
9:19 PM 51.8 °F - 48.2 °F 88% 29.91 in 2.0 mi Variable 5.8 mph - 0.12 in Rain Heavy Rain
9:27 PM 51.8 °F - 48.2 °F 88% 29.90 in 2.0 mi NNE 4.6 mph - 0.22 in Rain Heavy Rain
9:56 PM 51.1 °F - 48.0 °F 89% 29.93 in 2.0 mi West 4.6 mph - 0.44 in Rain Rain
10:06 PM 51.8 °F - 48.2 °F 88% 29.89 in 4.0 mi NNE 12.7 mph - 0.02 in Rain Light Rain
10:12 PM 51.8 °F - 48.2 °F 88% 29.88 in 6.0 mi NNE 10.4 mph - 0.02 in Rain Light Rain
10:33 PM 51.8 °F - 48.2 °F 88% 29.86 in 10.0 mi NNE 11.5 mph - 0.02 in Rain Light Rain
10:56 PM 51.1 °F - 48.9 °F 92% 29.84 in 8.0 mi NE 8.1 mph - 0.03 in Rain Light Rain
11:14 PM 51.8 °F - 48.2 °F 88% 29.81 in 5.0 mi ENE 6.9 mph - 0.00 in Rain Light Rain
11:40 PM 55.4 °F - 53.6 °F 94% 29.78 in 9.0 mi ENE 9.2 mph - 0.00 in   Overcast
11:56 PM 55.9 °F - 54.0 °F 93% 29.78 in 8.0 mi NNE 3.5 mph - 0.00 in   Overcast